Location: *
(45.9500°N, 9.0833°E)
Time: 18:41:48
(UTC+00:00)

SL-4 R/B - Pass Details

Date: 03 March 2021
Orbit: 428 x 663 km, 51.6° (Epoch: 14 April)

Event Time Altitude Azimuth Distance (km) Brightness Sun altitude
Rises 19:51:27 0° 297° (WNW) 2,445 6.6 -27.9°
Reaches altitude 10° 19:53:36 10° 297° (WNW) 1,551 5.3 -28.2°
Enters shadow 19:54:54 21° 296° (WNW) 1,029 4.1 -28.4°
